Temperature
22 20 19 20 20 20 19 19 19 20 20 20 19 19 20 21 21 22 23 24 24 25 26 26 26 25 25 24 24 23 22 22 21 21 20 20 20 19 19 19 19 18 18 18
20 20 21 21 20 20 20 19 19 20 20 20 19 19 20 20 21 22 23 23 24 24 25 25 25 25 25 25 24 23 22 22 21 21 20 20 20 19 19 19 18 18 18 18
21 21 22 22 21 20 20 19 19 19 19 19 18 18 19 20 21 22 23 23 24 25 25 25 25 25 25 25 24 23 22 22 21 20 20 19 19 19 19 18 18 18 18 18
22 22 22 22 21 21 19 20 20 19 18 17 18 16 17 18 19 20 21 22 23 24 25 24 24 24 24 24 23 23 22 22 21 20 20 20 19 19 18 18 18 18 17 17
21 22 22 21 21 22 20 20 19 19 17 16 17 16 17 17 18 19 20 21 22 24 24 23 23 23 23 23 22 22 22 21 21 21 20 20 19 18 18 18 17 17 17 17
21 22 22 21 22 22 20 19 18 16 15 16 17 16 16 16 17 18 19 20 21 22 22 22 22 22 22 21 21 21 21 21 22 21 21 20 19 18 18 18 18 18 17 17
19 20 21 21 20 20 19 17 16 16 15 15 17 17 16 16 17 17 17 17 19 20 21 21 21 21 21 21 21 21 22 22 22 21 21 20 19 18 18 18 18 17 17 17
17 17 19 20 20 19 19 17 16 15 15 16 17 16 15 16 16 16 16 16 17 18 19 19 20 21 21 21 21 21 21 22 21 21 20 19 19 18 18 18 17 17 17 17
17 17 19 20 19 18 17 16 16 15 15 15 16 16 16 16 16 16 15 15 15 15 17 18 18 19 20 20 21 21 21 21 21 20 19 19 18 18 18 17 17 17 17 16
17 16 17 18 17 17 15 14 13 14 15 15 16 15 14 14 14 15 15 15 14 15 16 17 17 18 19 20 21 21 21 21 20 20 19 19 19 18 18 17 17 17 17 16
16 15 14 15 14 14 14 13 12 12 13 14 14 14 14 13 14 14 14 14 14 15 16 16 17 18 19 20 20 20 20 20 20 19 19 19 18 18 18 18 18 17 17 16
16 12 12 14 15 15 14 13 12 12 12 13 14 13 14 13 14 14 14 15 16 16 17 17 17 18 19 19 20 20 20 20 20 19 19 19 18 18 18 18 18 17 17 17
16 13 12 12 13 14 13 13 13 12 12 13 13 13 14 13 14 14 14 15 16 17 17 17 18 18 19 20 20 20 20 20 20 19 19 18 18 18 18 18 18 17 17 17
16 13 13 12 12 12 12 12 13 13 12 13 12 12 12 13 13 14 14 15 16 17 17 18 18 19 19 20 20 20 20 20 19 19 19 18 18 18 18 18 17 17 17 17
13 13 14 13 13 12 11 11 12 12 12 12 12 11 11 12 13 13 14 14 15 15 16 17 18 19 19 20 20 20 20 20 19 18 18 18 17 17 17 17 17 17 17 16
12 13 13 12 12 12 11 10 11 11 12 12 12 11 11 12 13 13 13 14 14 14 15 16 17 18 18 19 19 20 20 19 18 18 17 17 16 17 17 17 17 16 16 16
12 12 12 11 12 12 10 9 9 10 10 10 10 10 11 11 12 12 13 13 14 14 15 16 16 16 16 17 17 18 18 18 17 17 16 16 16 16 16 16 16 16 16 15
12 11 10 10 11 10 9 9 9 10 10 10 10 10 11 11 11 13 13 13 14 15 15 15 15 15 15 15 15 16 16 16 15 15 15 15 15 15 15 15 15 15 15 15
11 11 10 9 10 10 10 10 9 9 10 9 9 10 10 10 12 13 14 13 14 15 15 15 15 15 15 15 15 15 15 15 14 14 14 14 14 15 15 15 15 14 14 14
11 10 9 9 9 9 9 10 10 9 10 10 9 10 10 10 10 11 13 14 14 15 15 15 15 15 15 14 14 14 14 13 13 13 13 13 13 13 13 14 13 13 13 13
9 9 8 8 9 9 10 11 10 10 9 10 9 10 10 9 10 11 13 14 15 15 15 15 15 14 14 14 14 13 13 13 13 12 12 12 12 12 12 12 12 12 12 12
9 9 8 8 8 9 11 10 9 9 10 10 10 11 11 11 12 13 14 15 15 15 15 15 15 14 14 14 14 13 13 13 13 12 12 12 12 11 11 12 12 12 12 12
10 9 8 9 9 11 11 11 11 11 11 11 11 11 11 12 12 13 14 15 15 16 15 15 15 15 14 14 14 14 13 13 13 13 12 12 11 11 11 11 11 11 11 12
10 11 9 9 10 11 11 12 12 11 11 12 12 12 12 12 13 14 14 15 16 16 16 15 15 15 15 14 14 14 14 13 13 13 12 12 11 11 11 11 11 11 11 11
10 11 9 9 11 11 12 12 12 12 12 12 12 12 12 12 13 14 14 15 15 16 16 16 16 15 15 15 14 14 14 13 13 13 12 12 12 11 11 11 11 11 11 11
10 10 9 9 11 11 12 12 12 12 12 12 12 12 12 12 13 14 14 15 15 16 16 16 16 16 15 15 15 14 14 13 13 13 12 12 12 11 11 11 11 11 11 10
Wind_Speed
2 2 2 5 5 6 4 4 6 6 3 3 6 9 11 8 6 6 6 6 7 9 10 9 16 19 17 16 15 14 12 12 11 7 6 6 5 5 4 4 5 6 6 7
3 3 7 6 5 5 5 5 6 5 3 4 7 11 11 9 7 7 7 8 9 9 7 6 12 15 16 16 14 13 12 12 11 8 5 4 4 3 3 4 4 6 6 6
5 7 5 5 5 5 5 6 6 6 3 3 5 9 8 7 6 7 8 8 8 10 10 8 11 12 13 14 15 13 12 11 10 9 6 5 4 3 2 3 4 4 5 6
4 5 3 5 6 7 7 8 7 3 1 4 2 6 9 8 8 8 7 5 6 6 7 8 9 11 11 11 11 12 12 11 10 10 9 8 5 5 5 4 4 4 4 5
6 5 4 5 7 4 6 4 3 3 2 3 2 3 9 7 9 10 9 6 5 4 9 10 10 11 10 10 10 10 10 9 9 8 9 8 5 4 3 3 4 5 4 4
5 5 2 3 5 3 3 5 5 5 4 3 5 5 5 6 10 15 14 12 7 2 8 11 12 13 12 10 8 8 8 7 7 8 7 7 7 6 4 4 3 3 3 2
8 8 7 9 11 9 8 6 5 5 2 6 5 3 1 8 13 15 17 16 10 6 4 8 12 13 13 13 11 9 8 7 7 7 7 7 7 6 6 5 4 4 2 2
7 8 8 9 7 7 5 3 3 3 4 5 4 2 3 9 12 16 17 17 15 11 6 4 5 9 11 11 11 10 9 8 7 7 6 5 6 5 4 5 4 4 4 3
5 6 7 9 8 5 5 2 3 4 4 4 5 2 4 15 19 19 19 19 18 15 11 8 6 5 5 7 8 10 9 7 7 6 5 5 6 5 5 4 4 3 3 2
3 6 6 7 8 8 4 2 3 2 2 2 3 4 8 16 17 17 16 16 14 13 12 10 8 5 1 3 4 6 7 8 7 6 5 4 5 6 5 4 4 4 4 3
4 2 7 7 6 6 6 4 3 0 1 1 1 3 6 11 13 13 13 12 11 9 8 6 4 4 6 4 4 5 7 7 7 7 5 5 5 5 6 5 5 5 4 4
3 3 4 4 3 2 3 2 1 1 2 1 2 2 8 10 11 11 12 11 9 8 5 3 4 7 8 8 7 6 6 7 6 6 6 6 6 6 6 6 6 5 5 5
4 4 5 8 7 5 5 5 2 2 2 1 2 3 9 11 12 11 10 10 9 7 6 5 6 8 10 10 9 7 6 7 7 7 6 5 4 5 6 6 6 6 6 6
4 4 1 3 5 4 7 12 9 1 2 4 5 6 14 19 19 16 12 9 8 6 5 4 5 6 7 7 7 6 7 6 7 7 6 5 4 5 5 6 6 6 7 7
5 3 3 3 9 12 14 17 17 14 9 7 7 8 16 18 17 16 14 13 14 13 11 9 7 6 6 6 5 3 2 3 6 7 6 3 4 4 5 5 5 6 6 7
6 4 4 4 10 14 16 20 18 13 12 10 9 9 15 17 15 17 18 17 16 14 14 14 14 14 12 11 10 10 7 5 6 6 4 1 1 2 2 4 4 4 5 5
5 4 3 3 1 5 11 13 11 8 11 9 9 10 17 19 19 15 16 16 14 13 13 13 13 12 12 11 12 12 12 12 11 10 7 6 4 5 5 3 2 2 3 3
3 3 3 3 5 6 3 5 6 6 9 11 9 12 15 18 16 8 10 14 13 10 10 10 9 10 9 9 10 10 11 11 11 9 8 7 7 6 6 6 5 4 2 2
6 4 4 4 4 2 3 4 4 4 3 10 12 14 16 18 11 6 13 17 11 6 6 6 6 7 8 8 8 9 9 8 8 7 7 6 6 6 6 6 5 4 3 2
8 8 6 5 4 2 4 7 3 2 1 8 11 13 15 15 10 10 18 18 12 6 4 6 6 7 7 7 7 8 7 7 7 5 5 5 5 5 6 6 4 4 3 3
6 7 6 5 3 1 5 6 4 2 5 10 8 10 10 7 6 13 18 15 9 3 3 6 6 5 4 4 7 7 6 5 4 4 5 5 6 5 6 5 4 4 4 4
3 3 3 3 3 3 4 2 2 3 5 6 8 8 9 10 13 14 15 14 9 3 2 4 4 3 2 3 4 5 5 4 3 4 5 5 6 6 6 7 7 6 6 7
3 5 4 3 4 4 2 3 5 5 5 6 6 9 9 10 11 13 13 13 8 3 1 1 2 1 3 3 2 4 5 3 2 4 3 3 5 6 6 7 7 6 6 6
2 3 3 2 1 3 4 4 4 5 6 8 8 9 8 8 11 13 12 11 8 4 2 1 1 1 3 4 2 2 4 3 4 4 2 1 2 4 5 6 5 5 6 5
6 4 3 2 2 2 4 5 5 6 7 7 8 6 7 8 9 8 9 10 8 5 4 2 2 2 3 3 2 2 3 4 4 3 1 0 1 2 3 4 5 5 4 4
6 7 6 5 6 5 5 6 4 4 6 6 6 7 8 7 8 8 9 8 8 7 5 4 3 3 2 2 3 3 0 3 4 2 0 1 1 0 1 2 2 5 4 5
Wind_Direction
205 103 248 242 199 198 212 241 268 263 261 296 275 278 284 286 281 286 295 295 278 258 257 211 187 181 176 176 175 177 171 168 162 157 161 166 177 180 188 194 197 189 177 188
29 265 238 202 195 203 217 255 269 275 261 280 282 279 275 266 253 250 260 271 274 260 253 209 182 176 174 172 170 169 165 160 159 159 158 156 148 158 175 182 192 199 181 176
223 244 223 208 227 234 244 232 238 252 315 330 313 302 296 287 272 267 258 251 258 245 221 196 175 171 167 167 165 161 152 145 140 135 125 111 94 90 120 184 207 212 192 183
280 269 241 252 253 224 255 240 216 214 348 302 2 303 296 300 314 306 292 280 258 237 188 164 150 146 153 154 146 140 137 133 135 138 143 148 157 170 189 189 208 228 216 195
307 301 280 274 273 234 240 259 198 178 165 300 272 235 292 331 335 330 325 317 288 185 150 142 138 133 126 123 126 128 126 128 134 137 144 146 151 169 173 180 211 231 233 214
290 321 15 329 335 34 32 37 36 53 82 285 244 205 295 353 346 346 350 351 348 172 156 147 142 135 128 121 122 129 135 140 143 142 148 154 161 167 173 192 213 230 236 229
339 346 6 20 7 358 28 52 7 345 345 252 254 207 322 0 10 8 3 1 8 36 104 143 145 142 139 140 149 154 157 158 159 157 164 170 175 178 191 202 213 216 222 228
4 321 351 8 2 314 320 134 169 248 254 287 306 241 64 8 13 15 13 10 12 20 35 81 131 142 141 146 153 161 166 167 166 168 178 184 186 183 197 209 207 209 211 216
353 296 331 4 1 353 341 354 166 191 250 262 277 323 28 7 11 9 8 10 11 9 18 35 43 69 117 148 166 171 171 167 175 181 185 197 198 191 196 202 197 194 192 185
37 307 322 356 15 20 26 28 50 118 206 255 322 32 359 352 352 352 355 358 359 5 11 20 27 34 315 207 182 174 174 178 183 185 191 196 194 187 183 173 173 171 172 157
52 18 324 3 12 337 5 29 25 259 159 148 17 37 356 337 331 329 336 340 343 356 13 18 355 304 268 253 219 200 190 186 186 183 178 169 167 164 161 170 177 174 173 173
16 90 332 316 302 346 55 55 57 87 18 26 110 59 343 329 320 319 322 326 331 339 335 314 272 261 264 254 239 221 201 192 191 180 166 165 159 159 165 178 187 184 182 188
11 63 358 342 337 353 18 357 330 179 180 142 116 47 351 350 347 333 325 319 317 311 297 276 262 260 261 256 246 229 212 199 180 165 162 157 167 177 186 194 200 199 196 200
64 72 102 305 307 3 13 9 9 92 133 92 66 31 0 358 355 350 350 344 337 329 315 302 285 276 276 271 259 242 225 200 172 158 155 161 195 214 215 214 214 213 208 208
57 26 349 50 82 71 46 25 29 46 56 74 69 39 2 349 347 358 8 16 21 21 22 21 16 13 11 4 353 329 240 184 154 141 142 176 231 235 235 235 232 228 220 221
26 5 6 63 88 75 47 23 19 31 37 44 45 25 350 346 353 12 17 20 24 24 27 30 36 42 41 38 38 41 47 73 105 111 113 110 325 303 263 248 239 235 233 235
352 8 36 16 50 58 33 5 2 23 38 28 28 356 344 351 350 359 11 13 19 24 26 30 36 41 41 40 47 51 53 62 70 71 63 56 46 36 21 14 6 290 262 247
8 23 72 43 45 56 319 293 328 351 50 31 11 354 352 344 326 320 7 3 1 10 25 32 39 48 48 50 54 58 58 62 65 63 57 48 44 37 27 27 21 359 326 271
48 61 61 62 78 90 331 337 342 339 22 19 358 349 349 344 337 336 352 352 344 356 27 40 46 56 54 50 53 61 58 59 61 56 50 42 43 38 28 19 3 352 350 344
34 50 65 56 76 52 309 314 316 231 5 4 349 341 342 352 8 334 329 332 332 352 41 53 51 53 52 44 52 56 50 51 51 49 45 37 36 33 20 6 355 350 357 359
12 22 42 58 79 324 276 308 346 29 316 317 317 317 324 331 284 292 311 321 323 336 63 69 62 53 42 44 54 46 31 20 16 41 45 34 22 16 12 6 4 6 17 27
74 51 30 57 53 297 304 25 38 258 265 278 290 296 300 301 303 313 322 327 327 326 70 76 68 40 4 34 52 34 4 332 7 53 53 37 23 20 22 29 28 28 34 40
142 175 177 172 203 236 202 211 238 235 263 276 280 290 298 306 311 320 324 329 327 303 252 99 91 347 335 349 28 12 334 340 67 73 66 44 37 36 34 40 38 34 32 39
239 168 116 108 197 197 215 254 268 261 259 272 280 286 294 300 308 319 327 337 339 323 299 302 139 293 314 319 318 325 340 27 104 109 114 64 60 51 42 39 37 42 31 26
200 153 130 161 210 220 280 292 289 292 296 297 300 296 297 304 313 319 328 335 336 322 302 279 205 234 293 301 284 316 20 64 102 131 152 81 67 80 66 54 40 39 39 27
193 166 163 199 210 192 250 273 292 311 318 318 323 326 325 324 323 327 330 333 335 329 314 290 263 255 271 265 251 266 18 99 113 132 205 322 341 49 122 112 64 41 37 32
Height
1494 1499 1503 1500 1499 1500 1502 1504 1504 1498 1492 1492 1491 1487 1479 1475 1474 1472 1469 1469 1470 1472 1473 1474 1476 1480 1484 1488 1491 1494 1496 1499 1502 1505 1507 1509 1511 1513 1515 1518 1520 1522 1523 1525
1499 1502 1494 1492 1494 1496 1499 1502 1502 1495 1491 1490 1491 1486 1477 1472 1471 1468 1466 1465 1465 1467 1469 1470 1472 1476 1479 1483 1487 1490 1494 1496 1499 1502 1505 1507 1509 1510 1512 1515 1517 1519 1520 1522
1500 1495 1489 1491 1493 1496 1497 1500 1498 1497 1493 1491 1494 1490 1479 1470 1467 1465 1463 1461 1461 1462 1464 1466 1469 1472 1476 1479 1483 1487 1491 1494 1497 1500 1503 1505 1507 1508 1510 1511 1513 1515 1517 1519
1494 1489 1489 1491 1492 1492 1499 1489 1489 1492 1500 1504 1500 1509 1487 1475 1469 1465 1461 1459 1458 1459 1460 1462 1465 1469 1473 1477 1481 1485 1489 1493 1496 1499 1501 1502 1503 1504 1506 1508 1510 1513 1514 1515
1498 1491 1490 1493 1489 1486 1490 1484 1487 1492 1499 1506 1502 1508 1495 1480 1477 1470 1464 1460 1457 1456 1457 1461 1465 1468 1473 1477 1481 1485 1489 1492 1494 1496 1498 1499 1501 1502 1504 1506 1508 1509 1511 1512
1494 1489 1489 1490 1485 1484 1485 1488 1492 1499 1505 1514 1503 1507 1502 1492 1486 1477 1468 1463 1458 1456 1457 1460 1464 1469 1473 1478 1483 1486 1488 1490 1492 1494 1495 1497 1498 1500 1502 1504 1505 1507 1508 1509
1503 1496 1491 1489 1490 1488 1490 1502 1516 1517 1519 1515 1497 1500 1503 1493 1487 1483 1476 1468 1462 1459 1459 1461 1463 1467 1471 1476 1481 1485 1487 1489 1490 1492 1493 1495 1497 1499 1501 1502 1503 1505 1506 1506
1517 1514 1499 1495 1497 1498 1495 1500 1518 1526 1523 1512 1498 1500 1500 1494 1488 1483 1479 1473 1467 1463 1462 1463 1464 1466 1469 1474 1479 1482 1485 1487 1489 1490 1492 1494 1496 1498 1499 1501 1502 1503 1504 1504
1518 1515 1501 1498 1497 1497 1500 1502 1503 1513 1513 1514 1505 1499 1495 1490 1487 1484 1482 1477 1474 1470 1467 1466 1467 1468 1471 1475 1478 1482 1484 1486 1488 1490 1492 1494 1495 1497 1498 1500 1501 1501 1502 1502
1513 1519 1509 1503 1500 1501 1503 1505 1510 1513 1515 1517 1508 1508 1511 1501 1496 1491 1487 1484 1479 1475 1472 1470 1470 1472 1475 1477 1480 1483 1485 1487 1489 1491 1492 1494 1495 1497 1498 1499 1500 1500 1500 1500
1513 1520 1518 1512 1513 1513 1509 1510 1512 1514 1513 1516 1519 1520 1511 1507 1501 1495 1490 1486 1482 1479 1476 1476 1476 1476 1476 1479 1481 1483 1485 1487 1489 1491 1492 1494 1495 1496 1497 1498 1499 1499 1499 1499
1514 1523 1527 1519 1512 1509 1510 1512 1515 1519 1518 1515 1517 1524 1510 1507 1501 1496 1490 1486 1482 1480 1479 1478 1477 1478 1478 1479 1481 1483 1485 1487 1489 1491 1492 1493 1494 1496 1496 1497 1498 1498 1498 1498
1515 1525 1534 1529 1524 1515 1514 1512 1511 1513 1517 1516 1519 1525 1512 1507 1502 1497 1491 1486 1483 1481 1480 1480 1480 1479 1478 1479 1480 1482 1484 1486 1487 1489 1491 1492 1494 1495 1496 1496 1497 1497 1497 1497
1515 1525 1531 1536 1530 1522 1522 1516 1509 1509 1515 1517 1521 1523 1517 1510 1505 1498 1493 1488 1485 1482 1481 1480 1479 1478 1478 1478 1478 1480 1481 1483 1485 1487 1489 1491 1492 1493 1495 1495 1495 1495 1496 1496
1519 1527 1524 1524 1523 1525 1527 1524 1516 1514 1514 1520 1524 1525 1524 1517 1511 1503 1496 1491 1487 1485 1483 1480 1478 1477 1477 1477 1477 1478 1479 1481 1483 1486 1488 1490 1490 1492 1493 1493 1493 1493 1494 1494
1524 1527 1526 1528 1527 1527 1530 1531 1527 1524 1525 1526 1525 1528 1525 1519 1512 1505 1500 1496 1492 1490 1487 1484 1482 1480 1480 1479 1478 1478 1479 1480 1482 1484 1486 1487 1488 1490 1490 1490 1490 1490 1491 1491
1529 1529 1531 1535 1529 1528 1539 1544 1540 1537 1536 1534 1535 1536 1527 1520 1514 1511 1507 1502 1499 1496 1492 1489 1487 1486 1485 1484 1482 1481 1481 1481 1482 1483 1485 1486 1487 1486 1486 1486 1487 1487 1487 1487
1530 1530 1536 1538 1537 1547 1554 1546 1545 1541 1539 1539 1538 1535 1530 1525 1517 1513 1511 1507 1504 1501 1498 1496 1494 1492 1491 1489 1487 1485 1485 1484 1484 1484 1484 1484 1484 1484 1483 1483 1483 1483 1483 1483
1529 1532 1538 1544 1546 1550 1549 1545 1545 1544 1541 1541 1538 1534 1530 1525 1517 1513 1511 1509 1507 1506 1503 1501 1499 1497 1495 1493 1491 1489 1488 1487 1486 1485 1485 1484 1483 1481 1480 1480 1479 1479 1478 1479
1534 1536 1542 1547 1550 1555 1553 1545 1543 1546 1542 1541 1538 1535 1531 1527 1524 1520 1513 1511 1510 1508 1506 1504 1502 1500 1497 1496 1494 1492 1490 1489 1488 1487 1485 1484 1482 1480 1478 1477 1476 1476 1475 1475
1546 1547 1551 1553 1554 1553 1548 1544 1543 1548 1549 1542 1539 1536 1533 1531 1530 1523 1516 1513 1511 1510 1508 1506 1504 1502 1501 1499 1497 1495 1493 1492 1491 1489 1487 1485 1482 1480 1479 1477 1476 1475 1475 1474
1551 1553 1554 1555 1558 1559 1546 1545 1547 1548 1543 1541 1538 1535 1532 1529 1524 1520 1516 1513 1511 1510 1509 1507 1506 1505 1503 1502 1500 1498 1496 1495 1493 1492 1490 1487 1485 1483 1481 1480 1479 1478 1477 1476
1548 1549 1551 1552 1555 1548 1546 1545 1545 1543 1541 1539 1537 1534 1531 1527 1523 1520 1516 1513 1512 1511 1510 1509 1508 1507 1506 1504 1503 1500 1498 1497 1495 1494 1492 1490 1488 1486 1484 1483 1482 1481 1480 1478
1545 1543 1546 1548 1547 1546 1545 1544 1543 1542 1540 1538 1536 1533 1530 1527 1524 1520 1517 1514 1513 1512 1511 1510 1509 1508 1507 1506 1505 1503 1500 1498 1497 1495 1494 1492 1490 1488 1487 1485 1484 1483 1482 1480
1542 1542 1545 1546 1545 1545 1544 1543 1542 1541 1539 1537 1535 1532 1530 1527 1523 1520 1517 1515 1514 1513 1512 1511 1510 1509 1508 1507 1506 1504 1502 1500 1498 1497 1495 1494 1492 1490 1489 1488 1486 1485 1483 1481
1537 1539 1543 1545 1542 1543 1543 1542 1541 1539 1538 1536 1533 1531 1529 1526 1523 1520 1518 1516 1514 1513 1512 1512 1511 1510 1509 1508 1507 1505 1503 1501 1499 1498 1496 1495 1493 1492 1490 1489 1487 1486 1484 1482